Time,TemperatureF,DewpointF,PressureIn,WindDirection,WindDirectionDegrees,WindSpeedMPH,WindSpeedGustMPH,Humidity,HourlyPrecipIn,Conditions,Clouds,dailyrainin,SoftwareType,DateUTC
2013-09-13 00:00:00,62.0,52.9,30.08,NNE,25,0.0,0.0,72,0.00,,CLR,0.00,VWS V14.01,2013-09-13 05:00:00,
2013-09-13 00:04:00,62.0,52.5,30.08,NNE,25,0.0,0.0,71,0.00,,CLR,0.00,VWS V14.01,2013-09-13 05:04:00,
2013-09-13 00:09:00,61.9,52.4,30.08,NNE,25,0.0,0.0,71,0.00,,CLR,0.00,VWS V14.01,2013-09-13 05:09:00,
2013-09-13 00:10:00,61.9,52.4,30.08,NNE,25,0.0,0.0,71,0.00,,CLR,0.00,VWS V14.01,2013-09-13 05:10:00,
2013-09-13 00:14:00,61.9,52.4,30.08,NNE,25,0.0,0.0,71,0.00,,CLR,0.00,VWS V14.01,2013-09-13 05:14:00,
2013-09-13 00:19:00,61.8,52.3,30.08,NNE,23,0.0,1.0,71,0.00,,CLR,0.00,VWS V14.01,2013-09-13 05:19:00,
2013-09-13 00:20:00,62.6,52.7,30.09,NNE,25,0.0,0.0,70,0.00,,CLR,0.23,VWS V14.01,2013-09-13 05:20:00,
2013-09-13 00:24:00,61.6,52.1,30.08,NNE,23,0.0,1.0,71,0.00,,CLR,0.00,VWS V14.01,2013-09-13 05:24:00,
2013-09-13 00:29:00,61.5,52.4,30.08,NNE,22,0.0,0.0,72,0.00,,CLR,0.00,VWS V14.01,2013-09-13 05:29:00,
2013-09-13 00:30:00,61.5,52.0,30.08,NNE,22,0.0,1.0,71,0.00,,CLR,0.00,VWS V14.01,2013-09-13 05:30:00,
2013-09-13 00:34:00,61.3,52.2,30.08,NNE,22,0.0,0.0,72,0.00,,CLR,0.00,VWS V14.01,2013-09-13 05:34:00,
2013-09-13 00:39:00,61.1,52.0,30.08,NNE,22,0.0,0.0,72,0.00,,CLR,0.00,VWS V14.01,2013-09-13 05:39:00,
2013-09-13 00:40:00,61.2,52.1,30.08,NNE,22,0.0,0.0,72,0.00,,CLR,0.00,VWS V14.01,2013-09-13 05:40:00,
2013-09-13 00:44:00,60.9,52.2,30.08,NNE,21,0.0,0.0,73,0.00,,CLR,0.00,VWS V14.01,2013-09-13 05:44:00,
2013-09-13 00:49:00,60.7,52.4,30.08,NNE,21,0.0,0.0,74,0.00,,CLR,0.00,VWS V14.01,2013-09-13 05:49:00,
2013-09-13 00:50:00,60.8,52.1,30.08,NNE,22,0.0,0.0,73,0.00,,CLR,0.00,VWS V14.01,2013-09-13 05:50:00,
2013-09-13 00:54:00,60.5,52.2,30.08,NNE,22,0.0,0.0,74,0.00,,CLR,0.00,VWS V14.01,2013-09-13 05:54:00,
2013-09-13 01:00:00,60.3,52.0,30.08,NNE,21,0.0,0.0,74,0.00,,CLR,0.00,VWS V14.01,2013-09-13 06:00:00,
2013-09-13 01:05:00,60.2,52.3,30.08,NNE,22,0.0,0.0,75,0.00,,CLR,0.00,VWS V14.01,2013-09-13 06:05:00,
2013-09-13 01:10:00,60.0,52.1,30.08,NNE,22,0.0,0.0,75,0.00,,CLR,0.00,VWS V14.01,2013-09-13 06:10:00,
2013-09-13 01:15:00,59.8,52.2,30.08,NNE,22,0.0,0.0,76,0.00,,CLR,0.00,VWS V14.01,2013-09-13 06:15:00,
2013-09-13 01:20:00,59.6,52.0,30.08,NNE,21,0.0,0.0,76,0.00,,CLR,0.00,VWS V14.01,2013-09-13 06:20:00,
2013-09-13 01:25:00,59.4,52.2,30.09,NNE,21,0.0,0.0,77,0.00,,CLR,0.00,VWS V14.01,2013-09-13 06:25:00,
2013-09-13 01:30:00,59.3,52.1,30.08,NNE,21,0.0,1.0,77,0.00,,CLR,0.00,VWS V14.01,2013-09-13 06:30:00,
2013-09-13 01:35:00,59.2,52.0,30.09,NW,316,0.0,1.0,77,0.00,,CLR,0.00,VWS V14.01,2013-09-13 06:35:00,
2013-09-13 01:40:00,59.3,52.1,30.09,North,5,0.0,2.0,77,0.00,,CLR,0.00,VWS V14.01,2013-09-13 06:40:00,
2013-09-13 01:45:00,59.3,52.1,30.09,North,349,0.0,2.0,77,0.00,,CLR,0.00,VWS V14.01,2013-09-13 06:45:00,
2013-09-13 01:50:00,59.3,52.1,30.09,North,349,0.0,1.0,77,0.00,,CLR,0.00,VWS V14.01,2013-09-13 06:50:00,
2013-09-13 01:55:00,59.2,52.3,30.09,NNE,13,0.0,2.0,78,0.00,,CLR,0.00,VWS V14.01,2013-09-13 06:55:00,
2013-09-13 02:00:00,59.1,52.3,30.09,NNE,13,0.0,0.0,78,0.00,,CLR,0.00,VWS V14.01,2013-09-13 07:00:00,
2013-09-13 02:05:00,59.0,52.2,30.09,NNE,12,0.0,1.0,78,0.00,,CLR,0.00,VWS V14.01,2013-09-13 07:05:00,
2013-09-13 02:10:00,58.9,52.1,30.09,NNE,19,0.0,0.0,78,0.00,,CLR,0.00,VWS V14.01,2013-09-13 07:10:00,
2013-09-13 02:15:00,58.8,52.0,30.09,NNE,19,0.0,0.0,78,0.00,,CLR,0.00,VWS V14.01,2013-09-13 07:15:00,
2013-09-13 02:20:00,58.7,52.2,30.09,NNE,19,0.0,1.0,79,0.00,,CLR,0.00,VWS V14.01,2013-09-13 07:20:00,
2013-09-13 02:25:00,58.6,52.1,30.09,NNE,19,0.0,1.0,79,0.00,,CLR,0.00,VWS V14.01,2013-09-13 07:25:00,
2013-09-13 02:30:00,58.5,52.4,30.09,NNE,19,0.0,0.0,80,0.00,,CLR,0.00,VWS V14.01,2013-09-13 07:30:00,
2013-09-13 02:35:00,58.3,52.2,30.09,NNE,19,0.0,0.0,80,0.00,,CLR,0.00,VWS V14.01,2013-09-13 07:35:00,
2013-09-13 02:40:00,58.3,52.2,30.09,NNE,19,0.0,1.0,80,0.00,,CLR,0.00,VWS V14.01,2013-09-13 07:40:00,
2013-09-13 02:41:00,58.2,52.1,30.09,NNE,19,0.0,1.0,80,0.00,,CLR,0.00,VWS V14.01,2013-09-13 07:41:00,
2013-09-13 02:46:00,58.1,52.3,30.09,NNE,19,0.0,1.0,81,0.00,,CLR,0.00,VWS V14.01,2013-09-13 07:46:00,
2013-09-13 02:50:00,58.0,52.2,30.09,NNE,19,0.0,1.0,81,0.00,,CLR,0.00,VWS V14.01,2013-09-13 07:50:00,
2013-09-13 02:51:00,58.0,52.2,30.09,NNE,19,0.0,1.0,81,0.00,,CLR,0.00,VWS V14.01,2013-09-13 07:51:00,
2013-09-13 02:56:00,57.8,52.3,30.09,NNE,19,0.0,1.0,82,0.00,,CLR,0.00,VWS V14.01,2013-09-13 07:56:00,
2013-09-13 03:00:00,57.8,52.3,30.09,NNE,19,0.0,1.0,82,0.00,,CLR,0.00,VWS V14.01,2013-09-13 08:00:00,
2013-09-13 03:01:00,57.7,52.2,30.09,NNE,19,0.0,1.0,82,0.00,,CLR,0.00,VWS V14.01,2013-09-13 08:01:00,
2013-09-13 03:06:00,57.6,52.2,30.10,NNE,19,0.0,1.0,82,0.00,,CLR,0.00,VWS V14.01,2013-09-13 08:06:00,
2013-09-13 03:10:00,57.6,52.2,30.10,NNE,19,0.0,1.0,82,0.00,,CLR,0.00,VWS V14.01,2013-09-13 08:10:00,
2013-09-13 03:11:00,57.5,52.1,30.10,NNE,19,0.0,0.0,82,0.00,,CLR,0.00,VWS V14.01,2013-09-13 08:11:00,
2013-09-13 03:16:00,57.4,52.3,30.10,NNE,19,0.0,0.0,83,0.00,,CLR,0.00,VWS V14.01,2013-09-13 08:16:00,
2013-09-13 03:20:00,57.3,52.2,30.10,NNE,19,0.0,0.0,83,0.00,,CLR,0.00,VWS V14.01,2013-09-13 08:20:00,
2013-09-13 03:21:00,57.3,52.2,30.10,NNE,19,0.0,0.0,83,0.00,,CLR,0.00,VWS V14.01,2013-09-13 08:21:00,
2013-09-13 03:26:00,57.2,52.1,30.10,NNE,19,0.0,0.0,83,0.00,,CLR,0.00,VWS V14.01,2013-09-13 08:26:00,
2013-09-13 03:30:00,57.2,52.4,30.10,NNE,19,0.0,0.0,84,0.00,,CLR,0.00,VWS V14.01,2013-09-13 08:30:00,
2013-09-13 03:31:00,57.2,52.4,30.10,NNE,19,0.0,0.0,84,0.00,,CLR,0.00,VWS V14.01,2013-09-13 08:31:00,
2013-09-13 03:36:00,57.1,52.3,30.10,NNE,19,0.0,0.0,84,0.00,,CLR,0.00,VWS V14.01,2013-09-13 08:36:00,
2013-09-13 03:40:00,57.0,52.2,30.10,NNE,19,0.0,0.0,84,0.00,,CLR,0.00,VWS V14.01,2013-09-13 08:40:00,
2013-09-13 03:41:00,56.9,52.1,30.10,NNE,19,0.0,0.0,84,0.00,,CLR,0.00,VWS V14.01,2013-09-13 08:41:00,
2013-09-13 03:46:00,56.9,52.4,30.10,NNE,19,0.0,0.0,85,0.00,,CLR,0.00,VWS V14.01,2013-09-13 08:46:00,
2013-09-13 03:50:00,56.8,52.3,30.10,NNE,19,0.0,0.0,85,0.00,,CLR,0.00,VWS V14.01,2013-09-13 08:50:00,
2013-09-13 03:51:00,56.8,52.3,30.10,NNE,19,0.0,0.0,85,0.00,,CLR,0.00,VWS V14.01,2013-09-13 08:51:00,
2013-09-13 03:56:00,56.7,52.6,30.11,NNE,19,0.0,0.0,86,0.00,,CLR,0.00,VWS V14.01,2013-09-13 08:56:00,
2013-09-13 04:00:00,56.7,52.6,30.11,NNE,19,0.0,0.0,86,0.00,,CLR,0.00,VWS V14.01,2013-09-13 09:00:00,
2013-09-13 04:01:00,56.6,52.5,30.11,NNE,19,0.0,0.0,86,0.00,,CLR,0.00,VWS V14.01,2013-09-13 09:01:00,
2013-09-13 04:06:00,56.5,52.4,30.11,NNE,19,0.0,0.0,86,0.00,,CLR,0.00,VWS V14.01,2013-09-13 09:06:00,
2013-09-13 04:10:00,56.5,52.4,30.11,NNE,19,0.0,0.0,86,0.00,,CLR,0.00,VWS V14.01,2013-09-13 09:10:00,
2013-09-13 04:11:00,56.5,52.7,30.11,NNE,19,0.0,0.0,87,0.00,,CLR,0.00,VWS V14.01,2013-09-13 09:11:00,
2013-09-13 04:16:00,56.5,52.7,30.11,NNE,19,0.0,0.0,87,0.00,,CLR,0.00,VWS V14.01,2013-09-13 09:16:00,
2013-09-13 04:20:00,56.5,52.7,30.11,NNE,19,0.0,0.0,87,0.00,,CLR,0.00,VWS V14.01,2013-09-13 09:20:00,
2013-09-13 04:22:00,56.4,52.6,30.12,NNE,30,0.0,0.0,87,0.00,,CLR,0.00,VWS V14.01,2013-09-13 09:22:00,
2013-09-13 04:27:00,56.4,52.6,30.12,NNE,30,0.0,0.0,87,0.00,,CLR,0.00,VWS V14.01,2013-09-13 09:27:00,
2013-09-13 04:30:00,56.4,52.9,30.12,NNE,30,0.0,0.0,88,0.00,,CLR,0.00,VWS V14.01,2013-09-13 09:30:00,
2013-09-13 04:32:00,56.3,52.8,30.12,NNE,30,0.0,0.0,88,0.00,,CLR,0.00,VWS V14.01,2013-09-13 09:32:00,
2013-09-13 04:37:00,56.2,52.7,30.12,NNE,30,0.0,0.0,88,0.00,,CLR,0.00,VWS V14.01,2013-09-13 09:37:00,
2013-09-13 04:40:00,56.3,52.8,30.12,NNE,30,0.0,0.0,88,0.00,,CLR,0.00,VWS V14.01,2013-09-13 09:40:00,
2013-09-13 04:42:00,56.3,52.8,30.13,NNE,30,0.0,1.0,88,0.00,,CLR,0.00,VWS V14.01,2013-09-13 09:42:00,
2013-09-13 04:47:00,56.3,53.1,30.13,NNE,30,0.0,1.0,89,0.00,,CLR,0.00,VWS V14.01,2013-09-13 09:47:00,
2013-09-13 04:50:00,56.3,53.1,30.13,NNE,18,0.0,3.0,89,0.00,,CLR,0.00,VWS V14.01,2013-09-13 09:50:00,
2013-09-13 04:52:00,56.3,53.1,30.13,NNE,18,0.0,1.0,89,0.00,,CLR,0.00,VWS V14.01,2013-09-13 09:52:00,
2013-09-13 04:57:00,56.2,53.0,30.13,NNE,26,0.0,1.0,89,0.00,,CLR,0.00,VWS V14.01,2013-09-13 09:57:00,
2013-09-13 05:00:00,56.1,52.9,30.13,NNE,27,0.0,1.0,89,0.00,,CLR,0.00,VWS V14.01,2013-09-13 10:00:00,
2013-09-13 05:02:00,56.0,52.8,30.13,NNE,26,0.0,0.0,89,0.00,,CLR,0.00,VWS V14.01,2013-09-13 10:02:00,
2013-09-13 05:07:00,55.9,52.7,30.13,North,11,1.0,2.0,89,0.00,,CLR,0.00,VWS V14.01,2013-09-13 10:07:00,
2013-09-13 05:10:00,55.9,52.7,30.13,North,11,1.0,2.0,89,0.00,,CLR,0.00,VWS V14.01,2013-09-13 10:10:00,
2013-09-13 05:12:00,55.8,52.3,30.13,NNE,22,0.0,2.0,88,0.00,,CLR,0.00,VWS V14.01,2013-09-13 10:12:00,
2013-09-13 05:17:00,55.7,52.2,30.13,NNE,26,1.0,2.0,88,0.00,,CLR,0.00,VWS V14.01,2013-09-13 10:17:00,
2013-09-13 05:20:00,55.7,52.2,30.13,NNE,26,1.0,2.0,88,0.00,,CLR,0.00,VWS V14.01,2013-09-13 10:20:00,
2013-09-13 05:22:00,55.6,52.1,30.13,NNE,26,0.0,2.0,88,0.00,,CLR,0.00,VWS V14.01,2013-09-13 10:22:00,
2013-09-13 05:27:00,55.5,51.7,30.14,NNE,14,1.0,2.0,87,0.00,,CLR,0.00,VWS V14.01,2013-09-13 10:27:00,
2013-09-13 05:30:00,55.5,51.7,30.14,NNE,16,1.0,2.0,87,0.00,,CLR,0.00,VWS V14.01,2013-09-13 10:30:00,
2013-09-13 05:32:00,55.4,51.6,30.14,NNE,18,0.0,1.0,87,0.00,,CLR,0.00,VWS V14.01,2013-09-13 10:32:00,
2013-09-13 05:37:00,55.3,51.5,30.14,NE,36,0.0,2.0,87,0.00,,CLR,0.00,VWS V14.01,2013-09-13 10:37:00,
2013-09-13 05:40:00,55.3,51.5,30.14,NE,36,1.0,2.0,87,0.00,,CLR,0.00,VWS V14.01,2013-09-13 10:40:00,
2013-09-13 05:42:00,55.2,51.4,30.14,NNE,27,0.0,2.0,87,0.00,,CLR,0.00,VWS V14.01,2013-09-13 10:42:00,
2013-09-13 05:47:00,55.1,51.3,30.14,NNE,13,0.0,2.0,87,0.00,,CLR,0.00,VWS V14.01,2013-09-13 10:47:00,
2013-09-13 05:50:00,55.1,51.3,30.14,NNE,13,0.0,2.0,87,0.00,,CLR,0.00,VWS V14.01,2013-09-13 10:50:00,
2013-09-13 05:53:00,55.0,51.2,30.15,NNE,23,0.0,0.0,87,0.00,,CLR,0.00,VWS V14.01,2013-09-13 10:53:00,
2013-09-13 05:58:00,54.9,51.1,30.15,NNE,12,0.0,0.0,87,0.00,,CLR,0.00,VWS V14.01,2013-09-13 10:58:00,
2013-09-13 06:00:00,54.9,51.1,30.15,NNE,12,0.0,0.0,87,0.00,,CLR,0.00,VWS V14.01,2013-09-13 11:00:00,
2013-09-13 06:03:00,54.8,51.0,30.15,NNE,23,0.0,0.0,87,0.00,,CLR,0.00,VWS V14.01,2013-09-13 11:03:00,
2013-09-13 06:08:00,54.7,50.9,30.15,NNE,23,0.0,0.0,87,0.00,,CLR,0.00,VWS V14.01,2013-09-13 11:08:00,
2013-09-13 06:10:00,54.7,50.9,30.15,NNE,23,0.0,0.0,87,0.00,,CLR,0.00,VWS V14.01,2013-09-13 11:10:00,
2013-09-13 06:13:00,54.7,50.9,30.15,NNE,23,0.0,0.0,87,0.00,,CLR,0.00,VWS V14.01,2013-09-13 11:13:00,
2013-09-13 06:18:00,54.5,51.0,30.15,NNE,23,0.0,0.0,88,0.00,,CLR,0.00,VWS V14.01,2013-09-13 11:18:00,
2013-09-13 06:20:00,54.5,51.0,30.15,NNE,23,0.0,0.0,88,0.00,,CLR,0.00,VWS V14.01,2013-09-13 11:20:00,
2013-09-13 06:23:00,54.5,51.0,30.16,NNE,23,0.0,1.0,88,0.00,,CLR,0.00,VWS V14.01,2013-09-13 11:23:00,
2013-09-13 06:28:00,54.5,51.0,30.16,NE,45,0.0,1.0,88,0.00,,CLR,0.00,VWS V14.01,2013-09-13 11:28:00,
2013-09-13 06:30:00,54.5,51.0,30.16,North,4,1.0,1.0,88,0.00,,CLR,0.00,VWS V14.01,2013-09-13 11:30:00,
2013-09-13 06:33:00,54.6,50.8,30.16,NNE,31,0.0,2.0,87,0.00,,CLR,0.00,VWS V14.01,2013-09-13 11:33:00,
2013-09-13 06:38:00,54.7,50.9,30.16,NNE,14,1.0,2.0,87,0.00,,CLR,0.00,VWS V14.01,2013-09-13 11:38:00,
2013-09-13 06:40:00,54.6,50.8,30.16,NE,54,0.0,2.0,87,0.00,,CLR,0.00,VWS V14.01,2013-09-13 11:40:00,
2013-09-13 06:43:00,54.7,50.3,30.16,NNE,15,0.0,2.0,85,0.00,,CLR,0.00,VWS V14.01,2013-09-13 11:43:00,
2013-09-13 06:48:00,54.8,50.4,30.16,NNE,18,0.0,0.0,85,0.00,,CLR,0.00,VWS V14.01,2013-09-13 11:48:00,
2013-09-13 06:50:00,54.8,50.4,30.16,NNE,18,0.0,2.0,85,0.00,,CLR,0.00,VWS V14.01,2013-09-13 11:50:00,
2013-09-13 06:53:00,55.0,50.3,30.16,NNE,18,0.0,1.0,84,0.00,,CLR,0.00,VWS V14.01,2013-09-13 11:53:00,
2013-09-13 06:58:00,55.0,49.9,30.16,NNE,18,0.0,0.0,83,0.00,,CLR,0.00,VWS V14.01,2013-09-13 11:58:00,
2013-09-13 07:00:00,55.0,49.9,30.16,NNE,18,0.0,1.0,83,0.00,,CLR,0.00,VWS V14.01,2013-09-13 12:00:00,
2013-09-13 07:03:00,55.1,49.7,30.16,NNW,346,0.0,1.0,82,0.00,,CLR,0.00,VWS V14.01,2013-09-13 12:03:00,
2013-09-13 07:08:00,55.0,49.6,30.17,NNE,29,2.0,2.0,82,0.00,,CLR,0.00,VWS V14.01,2013-09-13 12:08:00,
2013-09-13 07:10:00,55.0,49.6,30.17,NNE,23,0.0,2.0,82,0.00,,CLR,0.00,VWS V14.01,2013-09-13 12:10:00,
2013-09-13 07:13:00,54.9,49.2,30.17,NNE,30,2.0,4.0,81,0.00,,CLR,0.00,VWS V14.01,2013-09-13 12:13:00,
2013-09-13 07:18:00,54.9,49.2,30.17,NNE,27,0.0,1.0,81,0.00,,CLR,0.00,VWS V14.01,2013-09-13 12:18:00,
2013-09-13 07:20:00,54.9,49.2,30.17,NNE,29,0.0,4.0,81,0.00,,CLR,0.00,VWS V14.01,2013-09-13 12:20:00,
2013-09-13 07:23:00,55.2,49.5,30.17,NE,39,0.0,1.0,81,0.00,,CLR,0.00,VWS V14.01,2013-09-13 12:23:00,
2013-09-13 07:29:00,55.6,49.2,30.17,NNE,27,0.0,1.0,79,0.00,,CLR,0.00,VWS V14.01,2013-09-13 12:29:00,
2013-09-13 07:30:00,55.5,49.1,30.17,NNE,27,0.0,2.0,79,0.00,,CLR,0.00,VWS V14.01,2013-09-13 12:30:00,
2013-09-13 07:34:00,55.9,48.8,30.17,NNE,19,0.0,3.0,77,0.00,,CLR,0.00,VWS V14.01,2013-09-13 12:34:00,
2013-09-13 07:39:00,56.3,48.8,30.17,NE,46,0.0,1.0,76,0.00,,CLR,0.00,VWS V14.01,2013-09-13 12:39:00,
2013-09-13 07:40:00,56.2,48.8,30.17,NNE,23,1.0,3.0,76,0.00,,CLR,0.00,VWS V14.01,2013-09-13 12:40:00,
2013-09-13 07:44:00,56.5,48.7,30.17,NNE,23,0.0,3.0,75,0.00,,CLR,0.00,VWS V14.01,2013-09-13 12:44:00,
2013-09-13 07:49:00,56.6,48.4,30.17,NE,37,0.0,1.0,74,0.00,,CLR,0.00,VWS V14.01,2013-09-13 12:49:00,
2013-09-13 07:50:00,56.6,48.4,30.18,NNE,27,0.0,4.0,74,0.00,,CLR,0.00,VWS V14.01,2013-09-13 12:50:00,
2013-09-13 07:54:00,56.7,48.5,30.17,NE,36,0.0,3.0,74,0.00,,CLR,0.00,VWS V14.01,2013-09-13 12:54:00,
2013-09-13 07:59:00,56.9,48.7,30.17,NNE,27,1.0,2.0,74,0.00,,CLR,0.00,VWS V14.01,2013-09-13 12:59:00,
2013-09-13 08:00:00,56.9,48.7,30.17,ENE,77,1.0,3.0,74,0.00,,CLR,0.00,VWS V14.01,2013-09-13 13:00:00,
2013-09-13 08:04:00,57.0,48.4,30.18,NNE,22,0.0,4.0,73,0.00,,CLR,0.00,VWS V14.01,2013-09-13 13:04:00,
2013-09-13 08:09:00,57.2,48.6,30.18,NE,34,1.0,1.0,73,0.00,,CLR,0.00,VWS V14.01,2013-09-13 13:09:00,
2013-09-13 08:10:00,57.2,48.6,30.18,NNE,25,0.0,4.0,73,0.00,,CLR,0.00,VWS V14.01,2013-09-13 13:10:00,
2013-09-13 08:14:00,57.5,48.9,30.18,NNE,25,2.0,2.0,73,0.00,,CLR,0.00,VWS V14.01,2013-09-13 13:14:00,
2013-09-13 08:19:00,57.6,48.7,30.18,NNE,22,1.0,3.0,72,0.00,,CLR,0.00,VWS V14.01,2013-09-13 13:19:00,
2013-09-13 08:20:00,57.6,48.7,30.18,NNE,33,0.0,3.0,72,0.00,,CLR,0.00,VWS V14.01,2013-09-13 13:20:00,
2013-09-13 08:24:00,57.5,47.8,30.18,NNE,25,2.0,3.0,70,0.00,,CLR,0.00,VWS V14.01,2013-09-13 13:24:00,
2013-09-13 08:29:00,57.5,47.8,30.18,NE,34,0.0,3.0,70,0.00,,CLR,0.00,VWS V14.01,2013-09-13 13:29:00,
2013-09-13 08:30:00,57.5,47.8,30.18,NE,43,0.0,3.0,70,0.00,,OVC018,0.00,VWS V14.01,2013-09-13 13:30:00,
2013-09-13 08:34:00,57.5,47.8,30.18,NNE,20,2.0,5.0,70,0.00,,CLR,0.00,VWS V14.01,2013-09-13 13:34:00,
2013-09-13 08:39:00,57.8,47.7,30.18,NE,37,0.0,2.0,69,0.00,,CLR,0.00,VWS V14.01,2013-09-13 13:39:00,
2013-09-13 08:40:00,57.7,48.0,30.18,NNE,27,1.0,5.0,70,0.00,,CLR,0.00,VWS V14.01,2013-09-13 13:40:00,
2013-09-13 08:44:00,57.9,47.4,30.19,NNE,19,0.0,4.0,68,0.00,,CLR,0.00,VWS V14.01,2013-09-13 13:44:00,
2013-09-13 08:49:00,58.0,47.1,30.19,NNE,18,1.0,4.0,67,0.00,,CLR,0.00,VWS V14.01,2013-09-13 13:49:00,
2013-09-13 08:50:00,58.0,47.5,30.19,NNE,32,2.0,4.0,68,0.00,,CLR,0.00,VWS V14.01,2013-09-13 13:50:00,
2013-09-13 08:54:00,58.0,46.7,30.19,NNE,27,1.0,4.0,66,0.00,,CLR,0.00,VWS V14.01,2013-09-13 13:54:00,
2013-09-13 08:59:00,58.5,47.6,30.19,ENE,72,1.0,1.0,67,0.00,,CLR,0.00,VWS V14.01,2013-09-13 13:59:00,
2013-09-13 09:00:00,58.3,47.4,30.19,NE,36,1.0,6.0,67,0.00,,CLR,0.00,VWS V14.01,2013-09-13 14:00:00,
2013-09-13 09:04:00,58.8,47.5,30.19,East,93,2.0,5.0,66,0.00,,CLR,0.00,VWS V14.01,2013-09-13 14:04:00,
2013-09-13 09:10:00,58.8,47.1,30.19,NNE,27,0.0,2.0,65,0.00,,CLR,0.00,VWS V14.01,2013-09-13 14:10:00,
2013-09-13 09:15:00,59.1,47.8,30.19,ENE,57,1.0,8.0,66,0.00,,CLR,0.00,VWS V14.01,2013-09-13 14:15:00,
2013-09-13 09:20:00,59.6,48.2,30.19,NNW,340,2.0,6.0,66,0.00,,CLR,0.00,VWS V14.01,2013-09-13 14:20:00,
2013-09-13 09:25:00,59.9,47.3,30.19,East,83,1.0,6.0,63,0.00,,CLR,0.00,VWS V14.01,2013-09-13 14:25:00,
2013-09-13 09:30:00,59.7,47.1,30.20,NNE,25,2.0,7.0,63,0.00,,CLR,0.00,VWS V14.01,2013-09-13 14:30:00,
2013-09-13 09:35:00,60.0,48.2,30.20,North,6,3.0,7.0,65,0.00,,CLR,0.00,VWS V14.01,2013-09-13 14:35:00,
2013-09-13 09:40:00,60.6,47.5,30.20,North,359,1.0,3.0,62,0.00,,CLR,0.00,VWS V14.01,2013-09-13 14:40:00,
2013-09-13 09:45:00,61.0,47.5,30.20,East,84,0.0,3.0,61,0.00,,CLR,0.00,VWS V14.01,2013-09-13 14:45:00,
2013-09-13 09:50:00,61.3,47.8,30.20,NNE,19,0.0,3.0,61,0.00,,CLR,0.00,VWS V14.01,2013-09-13 14:50:00,
2013-09-13 09:55:00,61.8,47.8,30.20,NNE,23,1.0,3.0,60,0.00,,CLR,0.00,VWS V14.01,2013-09-13 14:55:00,
2013-09-13 10:00:00,62.2,48.2,30.20,NNE,19,2.0,5.0,60,0.00,,CLR,0.00,VWS V14.01,2013-09-13 15:00:00,
2013-09-13 10:05:00,62.2,46.8,30.20,North,7,2.0,5.0,57,0.00,,CLR,0.00,VWS V14.01,2013-09-13 15:05:00,
2013-09-13 10:10:00,62.0,46.6,30.20,NNE,30,2.0,4.0,57,0.00,,CLR,0.00,VWS V14.01,2013-09-13 15:10:00,
2013-09-13 10:15:00,62.0,46.6,30.20,NW,304,1.0,4.0,57,0.00,,CLR,0.00,VWS V14.01,2013-09-13 15:15:00,
2013-09-13 10:20:00,62.4,46.5,30.20,North,356,2.0,4.0,56,0.00,,CLR,0.00,VWS V14.01,2013-09-13 15:20:00,
2013-09-13 10:25:00,62.5,47.1,30.19,NNE,23,0.0,9.0,57,0.00,,CLR,0.00,VWS V14.01,2013-09-13 15:25:00,
2013-09-13 10:30:00,62.8,46.9,30.19,NE,37,2.0,4.0,56,0.00,,CLR,0.00,VWS V14.01,2013-09-13 15:30:00,
2013-09-13 10:35:00,62.9,47.0,30.19,NW,323,1.0,4.0,56,0.00,,CLR,0.00,VWS V14.01,2013-09-13 15:35:00,
2013-09-13 10:40:00,62.9,46.5,30.19,North,355,1.0,2.0,55,0.00,,CLR,0.00,VWS V14.01,2013-09-13 15:40:00,
2013-09-13 10:46:00,63.0,47.5,30.20,NNE,20,0.0,7.0,57,0.00,,CLR,0.00,VWS V14.01,2013-09-13 15:46:00,
2013-09-13 10:50:00,63.1,47.2,30.20,East,86,1.0,7.0,56,0.00,,CLR,0.00,VWS V14.01,2013-09-13 15:50:00,
2013-09-13 10:51:00,63.3,47.3,30.20,NNW,329,1.0,3.0,56,0.00,,CLR,0.00,VWS V14.01,2013-09-13 15:51:00,
2013-09-13 10:56:00,63.2,46.3,30.19,NNE,16,2.0,3.0,54,0.00,,CLR,0.00,VWS V14.01,2013-09-13 15:56:00,
2013-09-13 11:00:00,63.2,46.3,30.19,NW,314,1.0,3.0,54,0.00,,CLR,0.00,VWS V14.01,2013-09-13 16:00:00,
2013-09-13 11:01:00,63.0,46.6,30.19,NW,318,1.0,6.0,55,0.00,,CLR,0.00,VWS V14.01,2013-09-13 16:01:00,
2013-09-13 11:06:00,63.6,47.6,30.19,NE,43,2.0,6.0,56,0.00,,CLR,0.00,VWS V14.01,2013-09-13 16:06:00,
2013-09-13 11:10:00,63.7,46.8,30.19,North,356,2.0,6.0,54,0.00,,CLR,0.00,VWS V14.01,2013-09-13 16:10:00,
2013-09-13 11:11:00,63.7,46.3,30.19,North,350,1.0,2.0,53,0.00,,CLR,0.00,VWS V14.01,2013-09-13 16:11:00,
2013-09-13 11:16:00,64.0,47.0,30.19,NNE,27,1.0,3.0,54,0.00,,CLR,0.00,VWS V14.01,2013-09-13 16:16:00,
2013-09-13 11:20:00,64.2,47.2,30.19,NNW,336,1.0,3.0,54,0.00,,CLR,0.00,VWS V14.01,2013-09-13 16:20:00,
2013-09-13 11:21:00,64.6,47.1,30.19,North,359,1.0,8.0,53,0.00,,CLR,0.00,VWS V14.01,2013-09-13 16:21:00,
2013-09-13 11:26:00,64.6,46.1,30.19,NNE,15,2.0,8.0,51,0.00,,CLR,0.00,VWS V14.01,2013-09-13 16:26:00,
2013-09-13 11:30:00,64.7,47.2,30.19,NE,34,1.0,8.0,53,0.00,,CLR,0.00,VWS V14.01,2013-09-13 16:30:00,
2013-09-13 11:31:00,64.8,47.3,30.19,NNE,27,2.0,2.0,53,0.00,,CLR,0.00,VWS V14.01,2013-09-13 16:31:00,
2013-09-13 11:36:00,65.4,46.8,30.19,NNE,19,0.0,4.0,51,0.00,,CLR,0.00,VWS V14.01,2013-09-13 16:36:00,
2013-09-13 11:40:00,65.4,46.3,30.19,North,8,2.0,4.0,50,0.00,,CLR,0.00,VWS V14.01,2013-09-13 16:40:00,
2013-09-13 11:41:00,65.4,46.3,30.19,NNE,23,0.0,2.0,50,0.00,,CLR,0.00,VWS V14.01,2013-09-13 16:41:00,
2013-09-13 11:46:00,65.7,46.0,30.18,NNE,23,0.0,3.0,49,0.00,,CLR,0.00,VWS V14.01,2013-09-13 16:46:00,
2013-09-13 11:50:00,65.8,45.6,30.18,NE,41,0.0,3.0,48,0.00,,CLR,0.00,VWS V14.01,2013-09-13 16:50:00,
2013-09-13 11:51:00,66.1,46.4,30.18,NW,312,2.0,3.0,49,0.00,,CLR,0.00,VWS V14.01,2013-09-13 16:51:00,
2013-09-13 11:56:00,65.8,45.6,30.18,NNE,13,2.0,4.0,48,0.00,,CLR,0.00,VWS V14.01,2013-09-13 16:56:00,
2013-09-13 12:00:00,65.7,45.5,30.18,NNW,329,2.0,4.0,48,0.00,,CLR,0.00,VWS V14.01,2013-09-13 17:00:00,
2013-09-13 12:01:00,65.6,46.0,30.18,NNE,25,2.0,2.0,49,0.00,,CLR,0.00,VWS V14.01,2013-09-13 17:01:00,
2013-09-13 12:06:00,65.8,46.1,30.18,NNE,25,0.0,3.0,49,0.00,,CLR,0.00,VWS V14.01,2013-09-13 17:06:00,
2013-09-13 12:10:00,66.0,46.8,30.18,ESE,115,2.0,3.0,50,0.00,,CLR,0.00,VWS V14.01,2013-09-13 17:10:00,
2013-09-13 12:11:00,66.5,46.2,30.18,NW,313,0.0,3.0,48,0.00,,CLR,0.00,VWS V14.01,2013-09-13 17:11:00,
2013-09-13 12:16:00,66.9,46.6,30.18,NE,36,0.0,3.0,48,0.00,,CLR,0.00,VWS V14.01,2013-09-13 17:16:00,
2013-09-13 12:20:00,67.0,47.2,30.18,NNE,12,2.0,7.0,49,0.00,,CLR,0.00,VWS V14.01,2013-09-13 17:20:00,
2013-09-13 12:21:00,67.2,45.7,30.17,NNE,18,2.0,2.0,46,0.00,,CLR,0.00,VWS V14.01,2013-09-13 17:21:00,
2013-09-13 12:27:00,67.2,46.3,30.17,NW,304,1.0,3.0,47,0.00,,CLR,0.00,VWS V14.01,2013-09-13 17:27:00,
2013-09-13 12:30:00,67.3,45.8,30.17,WSW,249,1.0,3.0,46,0.00,,CLR,0.00,VWS V14.01,2013-09-13 17:30:00,
2013-09-13 12:32:00,67.6,45.5,30.17,NNE,29,1.0,3.0,45,0.00,,CLR,0.00,VWS V14.01,2013-09-13 17:32:00,
2013-09-13 12:37:00,67.8,46.3,30.17,NNE,23,0.0,3.0,46,0.00,,CLR,0.00,VWS V14.01,2013-09-13 17:37:00,
2013-09-13 12:40:00,67.8,45.1,30.17,NNE,23,0.0,3.0,44,0.00,,CLR,0.00,VWS V14.01,2013-09-13 17:40:00,
2013-09-13 12:42:00,67.8,45.7,30.17,ENE,70,2.0,2.0,45,0.00,,CLR,0.00,VWS V14.01,2013-09-13 17:42:00,
2013-09-13 12:47:00,67.9,45.8,30.17,NNE,27,0.0,4.0,45,0.00,,CLR,0.00,VWS V14.01,2013-09-13 17:47:00,
2013-09-13 12:50:00,67.9,45.2,30.17,NNW,335,1.0,4.0,44,0.00,,CLR,0.00,VWS V14.01,2013-09-13 17:50:00,
2013-09-13 12:52:00,67.9,44.6,30.17,SW,222,1.0,4.0,43,0.00,,CLR,0.00,VWS V14.01,2013-09-13 17:52:00,
2013-09-13 12:57:00,67.4,45.3,30.17,West,262,0.0,4.0,45,0.00,,CLR,0.00,VWS V14.01,2013-09-13 17:57:00,
2013-09-13 13:00:00,67.4,45.3,30.17,ESE,105,1.0,4.0,45,0.00,,CLR,0.00,VWS V14.01,2013-09-13 18:00:00,
2013-09-13 13:02:00,67.9,45.8,30.17,NNE,26,0.0,6.0,45,0.00,,CLR,0.00,VWS V14.01,2013-09-13 18:02:00,
2013-09-13 13:07:00,68.2,45.5,30.17,NNE,16,0.0,6.0,44,0.00,,CLR,0.00,VWS V14.01,2013-09-13 18:07:00,
2013-09-13 13:10:00,68.3,45.6,30.17,NNE,22,0.0,6.0,44,0.00,,CLR,0.00,VWS V14.01,2013-09-13 18:10:00,
2013-09-13 13:12:00,68.5,44.5,30.16,North,360,1.0,3.0,42,0.00,,CLR,0.00,VWS V14.01,2013-09-13 18:12:00,
2013-09-13 13:17:00,68.4,43.8,30.16,SSW,193,1.0,3.0,41,0.00,,CLR,0.00,VWS V14.01,2013-09-13 18:17:00,
2013-09-13 13:20:00,68.3,43.7,30.16,North,356,2.0,3.0,41,0.00,,CLR,0.00,VWS V14.01,2013-09-13 18:20:00,
2013-09-13 13:22:00,68.3,44.3,30.16,North,5,1.0,3.0,42,0.00,,CLR,0.00,VWS V14.01,2013-09-13 18:22:00,
2013-09-13 13:27:00,68.5,43.9,30.16,NE,44,3.0,4.0,41,0.00,,CLR,0.00,VWS V14.01,2013-09-13 18:27:00,
2013-09-13 13:30:00,68.6,44.6,30.16,ENE,62,1.0,4.0,42,0.00,,CLR,0.00,VWS V14.01,2013-09-13 18:30:00,
2013-09-13 13:32:00,68.8,44.2,30.16,NW,306,0.0,2.0,41,0.00,,CLR,0.00,VWS V14.01,2013-09-13 18:32:00,
2013-09-13 13:37:00,69.2,44.5,30.16,NNE,26,0.0,2.0,41,0.00,,CLR,0.00,VWS V14.01,2013-09-13 18:37:00,
2013-09-13 13:40:00,69.2,44.5,30.16,NNE,21,1.0,2.0,41,0.00,,CLR,0.00,VWS V14.01,2013-09-13 18:40:00,
2013-09-13 13:42:00,69.3,44.0,30.16,West,267,2.0,3.0,40,0.00,,CLR,0.00,VWS V14.01,2013-09-13 18:42:00,
2013-09-13 13:47:00,69.0,43.7,30.15,NNW,327,0.0,4.0,40,0.00,,CLR,0.00,VWS V14.01,2013-09-13 18:47:00,
2013-09-13 13:50:00,69.0,43.7,30.15,NNE,25,1.0,4.0,40,0.00,,CLR,0.00,VWS V14.01,2013-09-13 18:50:00,
2013-09-13 13:52:00,69.0,44.3,30.15,North,7,0.0,3.0,41,0.00,,CLR,0.00,VWS V14.01,2013-09-13 18:52:00,
2013-09-13 13:57:00,69.1,44.4,30.15,West,281,0.0,5.0,41,0.00,,CLR,0.00,VWS V14.01,2013-09-13 18:57:00,
2013-09-13 14:00:00,69.1,44.4,30.15,NW,324,3.0,5.0,41,0.00,,CLR,0.00,VWS V14.01,2013-09-13 19:00:00,
2013-09-13 14:02:00,69.1,44.4,30.16,NNE,28,0.0,3.0,41,0.00,,CLR,0.00,VWS V14.01,2013-09-13 19:02:00,
2013-09-13 14:08:00,69.0,43.7,30.15,ENE,77,0.0,3.0,40,0.00,,CLR,0.00,VWS V14.01,2013-09-13 19:08:00,
2013-09-13 14:10:00,69.0,44.3,30.15,ENE,77,0.0,3.0,41,0.00,,CLR,0.00,VWS V14.01,2013-09-13 19:10:00,
2013-09-13 14:13:00,69.4,44.7,30.15,East,94,2.0,4.0,41,0.00,,CLR,0.00,VWS V14.01,2013-09-13 19:13:00,
2013-09-13 14:18:00,69.6,45.5,30.15,NNE,27,0.0,4.0,42,0.00,,CLR,0.00,VWS V14.01,2013-09-13 19:18:00,
2013-09-13 14:20:00,69.6,45.5,30.15,NNE,27,0.0,4.0,42,0.00,,CLR,0.00,VWS V14.01,2013-09-13 19:20:00,
2013-09-13 14:23:00,69.7,45.0,30.15,North,353,1.0,3.0,41,0.00,,CLR,0.00,VWS V14.01,2013-09-13 19:23:00,
2013-09-13 14:28:00,69.5,44.8,30.15,NNE,12,0.0,3.0,41,0.00,,CLR,0.00,VWS V14.01,2013-09-13 19:28:00,
2013-09-13 14:30:00,69.5,44.8,30.15,NNE,12,0.0,3.0,41,0.00,,CLR,0.00,VWS V14.01,2013-09-13 19:30:00,
2013-09-13 14:33:00,69.7,45.0,30.15,North,349,2.0,3.0,41,0.00,,CLR,0.00,VWS V14.01,2013-09-13 19:33:00,
2013-09-13 14:38:00,69.5,44.8,30.15,North,6,2.0,2.0,41,0.00,,CLR,0.00,VWS V14.01,2013-09-13 19:38:00,
2013-09-13 14:40:00,69.4,44.7,30.15,NNE,20,1.0,4.0,41,0.00,,CLR,0.00,VWS V14.01,2013-09-13 19:40:00,
2013-09-13 14:43:00,69.2,43.9,30.15,NW,316,1.0,3.0,40,0.00,,CLR,0.00,VWS V14.01,2013-09-13 19:43:00,
2013-09-13 14:48:00,69.2,44.5,30.15,North,1,0.0,0.0,41,0.00,,CLR,0.00,VWS V14.01,2013-09-13 19:48:00,
2013-09-13 14:50:00,69.2,44.5,30.15,North,1,0.0,3.0,41,0.00,,CLR,0.00,VWS V14.01,2013-09-13 19:50:00,
2013-09-13 14:53:00,69.5,44.8,30.15,ENE,58,0.0,2.0,41,0.00,,CLR,0.00,VWS V14.01,2013-09-13 19:53:00,
2013-09-13 14:58:00,69.5,43.5,30.14,ENE,72,2.0,2.0,39,0.00,,CLR,0.00,VWS V14.01,2013-09-13 19:58:00,
2013-09-13 15:00:00,69.6,43.6,30.14,ESE,113,2.0,2.0,39,0.00,,CLR,0.00,VWS V14.01,2013-09-13 20:00:00,
2013-09-13 15:03:00,69.5,45.4,30.14,NNE,19,1.0,3.0,42,0.00,,CLR,0.00,VWS V14.01,2013-09-13 20:03:00,
2013-09-13 15:08:00,69.5,44.2,30.14,NNW,339,1.0,1.0,40,0.00,,CLR,0.00,VWS V14.01,2013-09-13 20:08:00,
2013-09-13 15:10:00,69.5,44.2,30.14,WNW,290,0.0,3.0,40,0.00,,CLR,0.00,VWS V14.01,2013-09-13 20:10:00,
2013-09-13 15:13:00,69.3,44.0,30.14,NE,50,0.0,3.0,40,0.00,,CLR,0.00,VWS V14.01,2013-09-13 20:13:00,
2013-09-13 15:18:00,69.1,44.4,30.14,NE,37,1.0,3.0,41,0.00,,CLR,0.00,VWS V14.01,2013-09-13 20:18:00,
2013-09-13 15:20:00,69.1,43.8,30.14,NNE,23,1.0,5.0,40,0.00,,CLR,0.00,VWS V14.01,2013-09-13 20:20:00,
2013-09-13 15:23:00,68.8,43.5,30.14,North,5,1.0,3.0,40,0.00,,CLR,0.00,VWS V14.01,2013-09-13 20:23:00,
2013-09-13 15:28:00,68.8,42.9,30.14,ENE,68,1.0,2.0,39,0.00,,CLR,0.00,VWS V14.01,2013-09-13 20:28:00,
2013-09-13 15:30:00,68.8,44.8,30.14,NNE,27,1.0,4.0,42,0.00,,CLR,0.00,VWS V14.01,2013-09-13 20:30:00,
2013-09-13 15:33:00,68.4,43.2,30.14,NNE,16,2.0,2.0,40,0.00,,CLR,0.00,VWS V14.01,2013-09-13 20:33:00,
2013-09-13 15:38:00,68.5,43.2,30.14,NE,45,3.0,3.0,40,0.00,,CLR,0.00,VWS V14.01,2013-09-13 20:38:00,
2013-09-13 15:40:00,68.6,44.0,30.14,North,360,2.0,3.0,41,0.00,,CLR,0.00,VWS V14.01,2013-09-13 20:40:00,
2013-09-13 15:44:00,68.4,41.8,30.14,NNE,30,0.0,3.0,38,0.00,,CLR,0.00,VWS V14.01,2013-09-13 20:44:00,
2013-09-13 15:49:00,68.0,41.5,30.13,WNW,302,0.0,1.0,38,0.00,,CLR,0.00,VWS V14.01,2013-09-13 20:49:00,
2013-09-13 15:50:00,68.1,41.6,30.13,WNW,301,1.0,5.0,38,0.00,,CLR,0.00,VWS V14.01,2013-09-13 20:50:00,
2013-09-13 15:54:00,68.0,42.8,30.13,North,358,2.0,3.0,40,0.00,,CLR,0.00,VWS V14.01,2013-09-13 20:54:00,
2013-09-13 15:59:00,68.0,42.1,30.13,NNE,25,2.0,3.0,39,0.00,,CLR,0.00,VWS V14.01,2013-09-13 20:59:00,
2013-09-13 16:00:00,68.0,42.8,30.13,NNW,342,1.0,3.0,40,0.00,,CLR,0.00,VWS V14.01,2013-09-13 21:00:00,
2013-09-13 16:04:00,68.0,42.1,30.13,North,351,0.0,4.0,39,0.00,,CLR,0.00,VWS V14.01,2013-09-13 21:04:00,
2013-09-13 16:09:00,68.1,42.2,30.13,NNE,27,1.0,1.0,39,0.00,,CLR,0.00,VWS V14.01,2013-09-13 21:09:00,
2013-09-13 16:10:00,68.1,42.9,30.13,NNE,12,0.0,4.0,40,0.00,,CLR,0.00,VWS V14.01,2013-09-13 21:10:00,
2013-09-13 16:14:00,68.1,40.9,30.13,NNE,19,1.0,3.0,37,0.00,,CLR,0.00,VWS V14.01,2013-09-13 21:14:00,
2013-09-13 16:19:00,68.0,41.5,30.13,NNE,25,1.0,4.0,38,0.00,,CLR,0.00,VWS V14.01,2013-09-13 21:19:00,
2013-09-13 16:20:00,68.0,41.5,30.13,NNE,13,0.0,3.0,38,0.00,,CLR,0.00,VWS V14.01,2013-09-13 21:20:00,
2013-09-13 16:24:00,67.9,41.4,30.13,NNE,15,1.0,4.0,38,0.00,,CLR,0.00,VWS V14.01,2013-09-13 21:24:00,
2013-09-13 16:29:00,67.8,42.6,30.13,NW,313,0.0,3.0,40,0.00,,CLR,0.00,VWS V14.01,2013-09-13 21:29:00,
2013-09-13 16:30:00,67.8,41.3,30.13,NNE,21,2.0,4.0,38,0.00,,CLR,0.00,VWS V14.01,2013-09-13 21:30:00,
2013-09-13 16:34:00,67.8,41.3,30.13,North,8,0.0,3.0,38,0.00,,CLR,0.00,VWS V14.01,2013-09-13 21:34:00,
2013-09-13 16:39:00,67.8,43.3,30.13,NNE,18,0.0,2.0,41,0.00,,CLR,0.00,VWS V14.01,2013-09-13 21:39:00,
2013-09-13 16:40:00,67.8,42.6,30.12,SSW,207,0.0,3.0,40,0.00,,CLR,0.00,VWS V14.01,2013-09-13 21:40:00,
2013-09-13 16:44:00,67.9,43.4,30.12,NNW,341,0.0,2.0,41,0.00,,CLR,0.00,VWS V14.01,2013-09-13 21:44:00,
2013-09-13 16:49:00,67.8,41.3,30.13,NNE,20,0.0,2.0,38,0.00,,CLR,0.00,VWS V14.01,2013-09-13 21:49:00,
2013-09-13 16:50:00,67.8,41.3,30.12,NNE,20,2.0,3.0,38,0.00,,CLR,0.00,VWS V14.01,2013-09-13 21:50:00,
2013-09-13 16:54:00,67.7,41.2,30.12,NNE,29,0.0,2.0,38,0.00,,CLR,0.00,VWS V14.01,2013-09-13 21:54:00,
2013-09-13 16:59:00,67.7,42.5,30.12,NNW,344,1.0,3.0,40,0.00,,CLR,0.00,VWS V14.01,2013-09-13 21:59:00,
2013-09-13 17:00:00,67.7,42.5,30.12,NNE,23,0.0,2.0,40,0.00,,CLR,0.00,VWS V14.01,2013-09-13 22:00:00,
2013-09-13 17:04:00,67.7,40.5,30.12,North,3,0.0,3.0,37,0.00,,CLR,0.00,VWS V14.01,2013-09-13 22:04:00,
2013-09-13 17:09:00,67.6,41.1,30.12,NE,34,1.0,2.0,38,0.00,,CLR,0.00,VWS V14.01,2013-09-13 22:09:00,
2013-09-13 17:10:00,67.6,41.1,30.12,NNE,19,1.0,3.0,38,0.00,,CLR,0.00,VWS V14.01,2013-09-13 22:10:00,
2013-09-13 17:14:00,67.4,40.9,30.12,NW,314,0.0,2.0,38,0.00,,CLR,0.00,VWS V14.01,2013-09-13 22:14:00,
2013-09-13 17:19:00,67.4,41.6,30.12,NNE,19,0.0,3.0,39,0.00,,CLR,0.00,VWS V14.01,2013-09-13 22:19:00,
2013-09-13 17:20:00,67.4,42.3,30.12,NNE,23,2.0,2.0,40,0.00,,CLR,0.00,VWS V14.01,2013-09-13 22:20:00,
2013-09-13 17:25:00,67.3,42.2,30.12,NNW,328,0.0,3.0,40,0.00,,CLR,0.00,VWS V14.01,2013-09-13 22:25:00,
2013-09-13 17:30:00,67.2,41.4,30.12,NNE,29,1.0,2.0,39,0.00,,CLR,0.00,VWS V14.01,2013-09-13 22:30:00,
2013-09-13 17:35:00,67.1,42.0,30.12,NNE,25,0.0,3.0,40,0.00,,CLR,0.00,VWS V14.01,2013-09-13 22:35:00,
2013-09-13 17:40:00,67.0,41.2,30.12,North,1,0.0,3.0,39,0.00,,CLR,0.00,VWS V14.01,2013-09-13 22:40:00,
2013-09-13 17:45:00,66.9,41.2,30.12,NNE,14,0.0,3.0,39,0.00,,CLR,0.00,VWS V14.01,2013-09-13 22:45:00,
2013-09-13 17:50:00,66.8,40.4,30.12,NNE,13,0.0,0.0,38,0.00,,CLR,0.00,VWS V14.01,2013-09-13 22:50:00,
2013-09-13 17:55:00,66.8,41.1,30.12,NW,318,0.0,0.0,39,0.00,,CLR,0.00,VWS V14.01,2013-09-13 22:55:00,
2013-09-13 18:00:00,66.6,39.5,30.12,NNE,25,0.0,0.0,37,0.00,,CLR,0.00,VWS V14.01,2013-09-13 23:00:00,
2013-09-13 18:05:00,66.5,38.8,30.12,NNE,28,0.0,2.0,36,0.00,,CLR,0.00,VWS V14.01,2013-09-13 23:05:00,
2013-09-13 18:10:00,66.4,39.4,30.13,NNE,27,0.0,0.0,37,0.00,,CLR,0.00,VWS V14.01,2013-09-13 23:10:00,
2013-09-13 18:15:00,66.3,39.3,30.13,NNE,27,0.0,0.0,37,0.00,,CLR,0.00,VWS V14.01,2013-09-13 23:15:00,
2013-09-13 18:20:00,66.0,39.0,30.12,NE,36,0.0,1.0,37,0.00,,CLR,0.00,VWS V14.01,2013-09-13 23:20:00,
2013-09-13 18:25:00,65.8,39.5,30.12,NE,36,0.0,1.0,38,0.00,,CLR,0.00,VWS V14.01,2013-09-13 23:25:00,
2013-09-13 18:30:00,65.5,39.2,30.12,ENE,62,0.0,2.0,38,0.00,,CLR,0.00,VWS V14.01,2013-09-13 23:30:00,
2013-09-13 18:35:00,65.2,39.0,30.13,ENE,63,0.0,2.0,38,0.00,,CLR,0.00,VWS V14.01,2013-09-13 23:35:00,
2013-09-13 18:40:00,64.9,39.4,30.13,ENE,62,0.0,0.0,39,0.00,,CLR,0.00,VWS V14.01,2013-09-13 23:40:00,
2013-09-13 18:45:00,64.6,39.8,30.13,ENE,62,0.0,0.0,40,0.00,,CLR,0.00,VWS V14.01,2013-09-13 23:45:00,
2013-09-13 18:50:00,64.2,40.0,30.12,ENE,62,0.0,0.0,41,0.00,,CLR,0.00,VWS V14.01,2013-09-13 23:50:00,
2013-09-13 18:55:00,63.8,40.3,30.12,ENE,62,0.0,0.0,42,0.00,,CLR,0.00,VWS V14.01,2013-09-13 23:55:00,
2013-09-13 19:00:00,63.6,40.7,30.13,ENE,62,0.0,0.0,43,0.00,,CLR,0.00,VWS V14.01,2013-09-14 00:00:00,
2013-09-13 19:01:00,63.4,41.1,30.12,ENE,62,0.0,0.0,44,0.00,,CLR,0.00,VWS V14.01,2013-09-14 00:01:00,
2013-09-13 19:06:00,63.0,40.8,30.12,ENE,62,0.0,0.0,44,0.00,,CLR,0.00,VWS V14.01,2013-09-14 00:06:00,
2013-09-13 19:10:00,62.8,41.2,30.12,ENE,62,0.0,0.0,45,0.00,,CLR,0.00,VWS V14.01,2013-09-14 00:10:00,
2013-09-13 19:11:00,62.6,41.0,30.13,ENE,63,0.0,0.0,45,0.00,,CLR,0.00,VWS V14.01,2013-09-14 00:11:00,
2013-09-13 19:16:00,62.1,41.1,30.12,ENE,62,0.0,0.0,46,0.00,,CLR,0.00,VWS V14.01,2013-09-14 00:16:00,
2013-09-13 19:20:00,62.0,41.6,30.13,ENE,62,0.0,0.0,47,0.00,,CLR,0.00,VWS V14.01,2013-09-14 00:20:00,
2013-09-13 19:21:00,61.7,41.3,30.13,ENE,62,0.0,0.0,47,0.00,,CLR,0.00,VWS V14.01,2013-09-14 00:21:00,
2013-09-13 19:26:00,61.5,41.1,30.13,ENE,63,0.0,0.0,47,0.00,,CLR,0.00,VWS V14.01,2013-09-14 00:26:00,
2013-09-13 19:30:00,61.4,41.0,30.13,ENE,62,0.0,0.0,47,0.00,,CLR,0.00,VWS V14.01,2013-09-14 00:30:00,
2013-09-13 19:31:00,61.3,41.5,30.13,ENE,62,0.0,0.0,48,0.00,,CLR,0.00,VWS V14.01,2013-09-14 00:31:00,
2013-09-13 19:36:00,61.0,41.7,30.13,ENE,62,0.0,0.0,49,0.00,,CLR,0.00,VWS V14.01,2013-09-14 00:36:00,
2013-09-13 19:40:00,60.9,41.6,30.13,ENE,62,0.0,0.0,49,0.00,,CLR,0.00,VWS V14.01,2013-09-14 00:40:00,
2013-09-13 19:41:00,60.6,41.9,30.13,ENE,62,0.0,0.0,50,0.00,,CLR,0.00,VWS V14.01,2013-09-14 00:41:00,
2013-09-13 19:46:00,60.1,41.9,30.13,ENE,62,0.0,0.0,51,0.00,,CLR,0.00,VWS V14.01,2013-09-14 00:46:00,
2013-09-13 19:50:00,60.0,41.8,30.13,ENE,63,0.0,0.0,51,0.00,,CLR,0.00,VWS V14.01,2013-09-14 00:50:00,
2013-09-13 19:51:00,59.7,42.1,30.13,ENE,62,0.0,0.0,52,0.00,,CLR,0.00,VWS V14.01,2013-09-14 00:51:00,
2013-09-13 19:56:00,59.5,42.4,30.13,ENE,62,0.0,0.0,53,0.00,,CLR,0.00,VWS V14.01,2013-09-14 00:56:00,
2013-09-13 20:00:00,59.5,42.4,30.13,ENE,62,0.0,0.0,53,0.00,,CLR,0.00,VWS V14.01,2013-09-14 01:00:00,
2013-09-13 20:01:00,59.3,42.7,30.13,ENE,63,0.0,0.0,54,0.00,,CLR,0.00,VWS V14.01,2013-09-14 01:01:00,
2013-09-13 20:06:00,59.1,43.0,30.13,ENE,62,0.0,0.0,55,0.00,,CLR,0.00,VWS V14.01,2013-09-14 01:06:00,
2013-09-13 20:10:00,59.1,43.0,30.13,ENE,68,0.0,0.0,55,0.00,,CLR,0.00,VWS V14.01,2013-09-14 01:10:00,
2013-09-13 20:11:00,59.0,42.9,30.13,ENE,68,0.0,0.0,55,0.00,,CLR,0.00,VWS V14.01,2013-09-14 01:11:00,
2013-09-13 20:16:00,58.8,43.2,30.14,ENE,71,0.0,0.0,56,0.00,,CLR,0.00,VWS V14.01,2013-09-14 01:16:00,
2013-09-13 20:20:00,58.9,43.2,30.14,ENE,71,0.0,0.0,56,0.00,,CLR,0.00,VWS V14.01,2013-09-14 01:20:00,
2013-09-13 20:21:00,58.9,43.2,30.14,ENE,70,0.0,0.0,56,0.00,,CLR,0.00,VWS V14.01,2013-09-14 01:21:00,
2013-09-13 20:26:00,58.9,43.2,30.14,ENE,69,0.0,0.0,56,0.00,,CLR,0.00,VWS V14.01,2013-09-14 01:26:00,
2013-09-13 20:30:00,58.9,43.2,30.14,ENE,69,0.0,0.0,56,0.00,,CLR,0.00,VWS V14.01,2013-09-14 01:30:00,
2013-09-13 20:32:00,58.9,43.7,30.14,ENE,69,0.0,0.0,57,0.00,,CLR,0.00,VWS V14.01,2013-09-14 01:32:00,
2013-09-13 20:37:00,58.7,44.0,30.14,East,86,0.0,0.0,58,0.00,,CLR,0.00,VWS V14.01,2013-09-14 01:37:00,
2013-09-13 20:40:00,58.7,44.0,30.14,East,86,0.0,0.0,58,0.00,,CLR,0.00,VWS V14.01,2013-09-14 01:40:00,
2013-09-13 20:42:00,58.6,43.9,30.14,NNE,25,0.0,0.0,58,0.00,,CLR,0.00,VWS V14.01,2013-09-14 01:42:00,
2013-09-13 20:47:00,58.5,44.2,30.14,NNE,25,0.0,0.0,59,0.00,,CLR,0.00,VWS V14.01,2013-09-14 01:47:00,
2013-09-13 20:50:00,58.4,44.2,30.14,NNE,25,0.0,0.0,59,0.00,,CLR,0.00,VWS V14.01,2013-09-14 01:50:00,
2013-09-13 20:52:00,58.4,44.1,30.14,East,94,0.0,0.0,59,0.00,,CLR,0.00,VWS V14.01,2013-09-14 01:52:00,
2013-09-13 20:57:00,58.2,44.4,30.14,East,94,0.0,0.0,60,0.00,,CLR,0.00,VWS V14.01,2013-09-14 01:57:00,
2013-09-13 21:00:00,58.2,44.4,30.14,East,95,0.0,0.0,60,0.00,,CLR,0.00,VWS V14.01,2013-09-14 02:00:00,
2013-09-13 21:02:00,58.2,44.4,30.14,ENE,71,0.0,1.0,60,0.00,,CLR,0.00,VWS V14.01,2013-09-14 02:02:00,
2013-09-13 21:07:00,58.2,44.4,30.14,East,84,0.0,1.0,60,0.00,,CLR,0.00,VWS V14.01,2013-09-14 02:07:00,
2013-09-13 21:10:00,58.2,44.4,30.14,East,85,0.0,1.0,60,0.00,,CLR,0.00,VWS V14.01,2013-09-14 02:10:00,
2013-09-13 21:12:00,58.1,44.3,30.14,East,86,0.0,1.0,60,0.00,,CLR,0.00,VWS V14.01,2013-09-14 02:12:00,
2013-09-13 21:17:00,58.1,44.3,30.14,East,86,0.0,1.0,60,0.00,,CLR,0.00,VWS V14.01,2013-09-14 02:17:00,
2013-09-13 21:20:00,58.1,44.3,30.14,East,88,2.0,3.0,60,0.00,,CLR,0.00,VWS V14.01,2013-09-14 02:20:00,
2013-09-13 21:22:00,58.2,44.4,30.14,ENE,68,0.0,2.0,60,0.00,,CLR,0.00,VWS V14.01,2013-09-14 02:22:00,
2013-09-13 21:27:00,58.3,44.5,30.14,ENE,75,0.0,2.0,60,0.00,,CLR,0.00,VWS V14.01,2013-09-14 02:27:00,
2013-09-13 21:30:00,58.2,44.4,30.14,ENE,75,0.0,2.0,60,0.00,,CLR,0.00,VWS V14.01,2013-09-14 02:30:00,
2013-09-13 21:32:00,58.3,44.5,30.14,East,94,0.0,1.0,60,0.00,,CLR,0.00,VWS V14.01,2013-09-14 02:32:00,
2013-09-13 21:37:00,58.3,44.5,30.14,East,94,0.0,1.0,60,0.00,,CLR,0.00,VWS V14.01,2013-09-14 02:37:00,
2013-09-13 21:40:00,58.3,44.5,30.14,East,93,0.0,1.0,60,0.00,,CLR,0.00,VWS V14.01,2013-09-14 02:40:00,
2013-09-13 21:42:00,58.3,44.5,30.14,East,92,0.0,0.0,60,0.00,,CLR,0.00,VWS V14.01,2013-09-14 02:42:00,
2013-09-13 21:47:00,58.2,44.4,30.14,East,93,0.0,0.0,60,0.00,,CLR,0.00,VWS V14.01,2013-09-14 02:47:00,
2013-09-13 21:50:00,58.2,44.4,30.14,East,93,0.0,0.0,60,0.00,,CLR,0.00,VWS V14.01,2013-09-14 02:50:00,
2013-09-13 21:52:00,58.2,44.4,30.14,East,94,0.0,1.0,60,0.00,,CLR,0.00,VWS V14.01,2013-09-14 02:52:00,
2013-09-13 21:57:00,58.1,44.7,30.14,East,94,0.0,2.0,61,0.00,,CLR,0.00,VWS V14.01,2013-09-14 02:57:00,
2013-09-13 22:00:00,58.1,44.7,30.14,East,101,2.0,2.0,61,0.00,,CLR,0.00,VWS V14.01,2013-09-14 03:00:00,
2013-09-13 22:03:00,58.4,44.6,30.15,East,90,2.0,7.0,60,0.00,,CLR,0.00,VWS V14.01,2013-09-14 03:03:00,
2013-09-13 22:08:00,58.3,45.3,30.15,ESE,120,2.0,7.0,62,0.00,,CLR,0.00,VWS V14.01,2013-09-14 03:08:00,
2013-09-13 22:10:00,58.3,45.3,30.15,ESE,120,2.0,7.0,62,0.00,,CLR,0.00,VWS V14.01,2013-09-14 03:10:00,
2013-09-13 22:13:00,58.1,45.6,30.15,East,87,0.0,4.0,63,0.00,,CLR,0.00,VWS V14.01,2013-09-14 03:13:00,
2013-09-13 22:18:00,57.8,45.7,30.15,ESE,114,6.0,6.0,64,0.00,,CLR,0.00,VWS V14.01,2013-09-14 03:18:00,
2013-09-13 22:20:00,57.8,45.7,30.15,East,93,5.0,5.0,64,0.00,,CLR,0.00,VWS V14.01,2013-09-14 03:20:00,
2013-09-13 22:23:00,57.4,45.8,30.15,East,101,3.0,6.0,65,0.00,,CLR,0.00,VWS V14.01,2013-09-14 03:23:00,
2013-09-13 22:28:00,57.0,46.2,30.15,ESE,110,0.0,2.0,67,0.00,,CLR,0.00,VWS V14.01,2013-09-14 03:28:00,
2013-09-13 22:30:00,57.0,46.2,30.15,ESE,108,2.0,7.0,67,0.00,,CLR,0.00,VWS V14.01,2013-09-14 03:30:00,
2013-09-13 22:33:00,56.6,46.2,30.15,East,84,1.0,7.0,68,0.00,,CLR,0.00,VWS V14.01,2013-09-14 03:33:00,
2013-09-13 22:38:00,56.2,46.2,30.15,East,97,3.0,4.0,69,0.00,,CLR,0.00,VWS V14.01,2013-09-14 03:38:00,
2013-09-13 22:40:00,56.2,46.2,30.15,East,96,2.0,7.0,69,0.00,,CLR,0.00,VWS V14.01,2013-09-14 03:40:00,
2013-09-13 22:43:00,55.8,46.5,30.15,ESE,114,1.0,5.0,71,0.00,,CLR,0.00,VWS V14.01,2013-09-14 03:43:00,
2013-09-13 22:48:00,55.5,46.6,30.15,East,85,2.0,2.0,72,0.00,,CLR,0.00,VWS V14.01,2013-09-14 03:48:00,
2013-09-13 22:50:00,55.5,46.6,30.15,ESE,102,2.0,5.0,72,0.00,,CLR,0.00,VWS V14.01,2013-09-14 03:50:00,
2013-09-13 22:53:00,55.3,46.8,30.15,ESE,108,1.0,3.0,73,0.00,,CLR,0.00,VWS V14.01,2013-09-14 03:53:00,
2013-09-13 22:58:00,55.0,46.9,30.15,SSE,167,1.0,2.0,74,0.00,,CLR,0.00,VWS V14.01,2013-09-14 03:58:00,
2013-09-13 23:00:00,55.0,46.5,30.15,ESE,104,2.0,5.0,73,0.00,,CLR,0.00,VWS V14.01,2013-09-14 04:00:00,
2013-09-13 23:01:00,54.8,46.7,30.15,SE,131,2.0,4.0,74,0.00,,CLR,0.00,VWS V14.01,2013-09-14 04:01:00,
2013-09-13 23:02:00,54.8,46.7,30.15,ENE,75,3.0,4.0,74,0.00,,CLR,0.00,VWS V14.01,2013-09-14 04:02:00,
2013-09-13 23:04:00,54.7,46.6,30.15,ESE,120,2.0,5.0,74,0.00,,CLR,0.00,VWS V14.01,2013-09-14 04:04:00,
2013-09-13 23:09:00,54.6,46.8,30.15,SE,124,0.0,1.0,75,0.00,,CLR,0.00,VWS V14.01,2013-09-14 04:09:00,
2013-09-13 23:10:00,54.5,46.8,30.16,East,100,0.0,2.0,75,0.00,,CLR,0.00,VWS V14.01,2013-09-14 04:10:00,
2013-09-13 23:15:00,54.2,46.8,30.16,East,85,0.0,3.0,76,0.00,,CLR,0.00,VWS V14.01,2013-09-14 04:15:00,
2013-09-13 23:20:00,54.0,46.6,30.16,ESE,117,0.0,2.0,76,0.00,,CLR,0.00,VWS V14.01,2013-09-14 04:20:00,
2013-09-13 23:25:00,53.8,46.8,30.16,ENE,70,3.0,3.0,77,0.00,,CLR,0.00,VWS V14.01,2013-09-14 04:25:00,
2013-09-13 23:30:00,53.7,46.7,30.16,ENE,77,2.0,4.0,77,0.00,,CLR,0.00,VWS V14.01,2013-09-14 04:30:00,
2013-09-13 23:31:00,53.7,46.7,30.16,SE,143,1.0,3.0,77,0.00,,CLR,0.00,VWS V14.01,2013-09-14 04:31:00,
2013-09-13 23:36:00,53.6,46.9,30.16,NE,43,1.0,4.0,78,0.00,,CLR,0.00,VWS V14.01,2013-09-14 04:36:00,
2013-09-13 23:40:00,53.5,46.8,30.15,ESE,115,1.0,4.0,78,0.00,,CLR,0.00,VWS V14.01,2013-09-14 04:40:00,
2013-09-13 23:41:00,53.5,46.8,30.15,SSE,150,1.0,4.0,78,0.00,,CLR,0.00,VWS V14.01,2013-09-14 04:41:00,
2013-09-13 23:46:00,53.3,46.6,30.16,East,95,1.0,5.0,78,0.00,,CLR,0.00,VWS V14.01,2013-09-14 04:46:00,
2013-09-13 23:50:00,53.3,46.6,30.16,SSE,149,2.0,5.0,78,0.00,,CLR,0.00,VWS V14.01,2013-09-14 04:50:00,
2013-09-13 23:51:00,53.2,46.5,30.16,SE,129,1.0,4.0,78,0.00,,CLR,0.00,VWS V14.01,2013-09-14 04:51:00,
2013-09-13 23:56:00,53.1,46.8,30.16,SSE,151,1.0,4.0,79,0.00,,CLR,0.00,VWS V14.01,2013-09-14 04:56:00,